Time,TemperatureF,DewpointF,PressureIn,WindDirection,WindDirectionDegrees,WindSpeedMPH,WindSpeedGustMPH,Humidity,HourlyPrecipIn,Conditions,Clouds,dailyrainin,SoftwareType,DateUTC
2013-04-10 00:00:00,67.8,63.6,30.17,NE,42,5.7,6.1,86,0.00,,,0.00,WUHU216PEETBRO,2013-04-10 04:00:00,
2013-04-10 00:05:00,68.0,64.5,30.17,NE,42,7.3,7.4,89,0.00,,,0.00,WUHU216PEETBRO,2013-04-10 04:05:00,
2013-04-10 00:10:00,68.1,64.7,30.17,NE,45,6.1,8.3,89,0.00,,,0.00,WUHU216PEETBRO,2013-04-10 04:10:00,
2013-04-10 00:15:00,68.1,64.5,30.17,ENE,74,6.5,8.7,88,0.00,,,0.00,WUHU216PEETBRO,2013-04-10 04:15:00,
2013-04-10 00:20:00,68.3,64.6,30.17,NE,45,4.8,8.7,88,0.00,,,0.00,WUHU216PEETBRO,2013-04-10 04:20:00,
2013-04-10 00:25:00,68.2,64.6,30.17,ENE,71,4.3,8.1,88,0.00,,,0.00,WUHU216PEETBRO,2013-04-10 04:25:00,
2013-04-10 00:30:00,68.2,64.6,30.17,NE,55,5.0,9.8,88,0.00,,,0.00,WUHU216PEETBRO,2013-04-10 04:30:00,
2013-04-10 00:35:00,68.3,64.7,30.17,NE,38,5.5,9.8,88,0.00,,,0.00,WUHU216PEETBRO,2013-04-10 04:35:00,
2013-04-10 00:40:00,68.2,64.7,30.17,ENE,64,5.7,7.7,89,0.00,,,0.00,WUHU216PEETBRO,2013-04-10 04:40:00,
2013-04-10 00:45:00,68.1,64.6,30.16,NE,46,2.7,7.7,89,0.00,,,0.00,WUHU216PEETBRO,2013-04-10 04:45:00,
2013-04-10 00:50:00,68.2,64.7,30.16,ENE,57,6.8,7.8,89,0.00,,,0.00,WUHU216PEETBRO,2013-04-10 04:50:00,
2013-04-10 00:55:00,68.1,64.7,30.17,ENE,70,4.4,7.8,89,0.00,,,0.00,WUHU216PEETBRO,2013-04-10 04:55:00,
2013-04-10 01:00:00,67.9,64.7,30.16,NE,35,4.5,7.0,90,0.00,,,0.00,WUHU216PEETBRO,2013-04-10 05:00:00,
2013-04-10 01:05:00,67.9,64.8,30.16,NE,36,4.5,8.0,90,0.00,,,0.00,WUHU216PEETBRO,2013-04-10 05:05:00,
2013-04-10 01:10:00,67.8,64.8,30.16,NE,56,7.0,8.0,90,0.00,,,0.00,WUHU216PEETBRO,2013-04-10 05:10:00,
2013-04-10 01:15:00,67.7,64.8,30.16,ENE,70,3.3,9.3,90,0.00,,,0.00,WUHU216PEETBRO,2013-04-10 05:15:00,
2013-04-10 01:20:00,67.5,64.7,30.16,NE,42,5.2,9.3,91,0.00,,,0.00,WUHU216PEETBRO,2013-04-10 05:20:00,
2013-04-10 01:25:00,67.4,64.7,30.16,NE,53,6.9,7.3,91,0.00,,,0.00,WUHU216PEETBRO,2013-04-10 05:25:00,
2013-04-10 01:30:00,67.3,64.6,30.16,NE,52,3.4,6.9,91,0.00,,,0.00,WUHU216PEETBRO,2013-04-10 05:30:00,
2013-04-10 01:35:00,67.3,64.6,30.16,NE,52,0.0,6.3,91,0.00,,,0.00,WUHU216PEETBRO,2013-04-10 05:35:00,
2013-04-10 01:40:00,67.2,64.5,30.16,NE,52,0.0,4.2,91,0.00,,,0.00,WUHU216PEETBRO,2013-04-10 05:40:00,
2013-04-10 01:45:00,67.2,64.5,30.15,NE,52,0.0,0.0,91,0.00,,,0.00,WUHU216PEETBRO,2013-04-10 05:45:00,
2013-04-10 01:50:00,67.2,64.5,30.15,NE,52,0.0,0.0,91,0.00,,,0.00,WUHU216PEETBRO,2013-04-10 05:50:00,
2013-04-10 01:55:00,67.1,64.4,30.15,NNE,29,0.0,4.7,91,0.00,,,0.00,WUHU216PEETBRO,2013-04-10 05:55:00,
2013-04-10 02:00:00,67.1,64.4,30.15,NE,56,0.0,5.9,91,0.00,,,0.00,WUHU216PEETBRO,2013-04-10 06:00:00,
2013-04-10 02:05:00,66.9,64.2,30.15,ENE,64,0.0,5.9,91,0.00,,,0.00,WUHU216PEETBRO,2013-04-10 06:05:00,
2013-04-10 02:10:00,66.8,64.1,30.15,ENE,64,0.0,2.9,91,0.00,,,0.00,WUHU216PEETBRO,2013-04-10 06:10:00,
2013-04-10 02:15:00,66.5,63.9,30.14,ENE,64,0.0,0.0,91,0.00,,,0.00,WUHU216PEETBRO,2013-04-10 06:15:00,
2013-04-10 02:20:00,66.4,63.8,30.14,ENE,64,0.0,0.0,92,0.00,,,0.00,WUHU216PEETBRO,2013-04-10 06:20:00,
2013-04-10 02:25:00,66.4,63.9,30.14,NE,45,6.8,6.8,92,0.00,,,0.00,WUHU216PEETBRO,2013-04-10 06:25:00,
2013-04-10 02:30:00,66.7,64.3,30.13,ENE,57,6.5,6.8,92,0.00,,,0.00,WUHU216PEETBRO,2013-04-10 06:30:00,
2013-04-10 02:35:00,66.8,64.4,30.13,ENE,64,0.0,6.8,92,0.00,,,0.00,WUHU216PEETBRO,2013-04-10 06:35:00,
2013-04-10 02:40:00,66.7,64.3,30.13,NE,52,2.9,5.7,92,0.00,,,0.00,WUHU216PEETBRO,2013-04-10 06:40:00,
2013-04-10 02:45:00,66.5,64.1,30.13,NE,52,0.0,5.9,92,0.00,,,0.00,WUHU216PEETBRO,2013-04-10 06:45:00,
2013-04-10 02:50:00,66.4,64.0,30.12,NE,35,5.3,5.9,92,0.00,,,0.00,WUHU216PEETBRO,2013-04-10 06:50:00,
2013-04-10 02:55:00,66.4,64.1,30.12,NE,50,0.0,5.7,92,0.00,,,0.00,WUHU216PEETBRO,2013-04-10 06:55:00,
2013-04-10 03:00:00,66.4,64.1,30.11,NE,50,0.0,5.7,93,0.00,,,0.00,WUHU216PEETBRO,2013-04-10 07:00:00,
2013-04-10 03:05:00,66.3,64.1,30.11,NE,50,0.0,0.0,93,0.00,,,0.00,WUHU216PEETBRO,2013-04-10 07:05:00,
2013-04-10 03:10:00,66.3,64.1,30.11,NE,50,0.0,0.0,93,0.00,,,0.00,WUHU216PEETBRO,2013-04-10 07:10:00,
2013-04-10 03:15:00,66.4,64.3,30.11,NE,35,2.9,7.5,93,0.00,,,0.00,WUHU216PEETBRO,2013-04-10 07:15:00,
2013-04-10 03:20:00,66.3,64.2,30.11,NE,53,0.0,7.5,93,0.00,,,0.00,WUHU216PEETBRO,2013-04-10 07:20:00,
2013-04-10 03:25:00,66.2,64.1,30.11,NE,53,0.0,6.3,93,0.00,,,0.00,WUHU216PEETBRO,2013-04-10 07:25:00,
2013-04-10 03:30:00,66.1,64.0,30.11,NE,53,0.0,0.0,93,0.00,,,0.00,WUHU216PEETBRO,2013-04-10 07:30:00,
2013-04-10 03:35:00,65.9,63.8,30.11,NE,53,0.0,0.0,93,0.00,,,0.00,WUHU216PEETBRO,2013-04-10 07:35:00,
2013-04-10 03:40:00,65.8,63.7,30.11,NE,53,0.0,0.0,93,0.00,,,0.00,WUHU216PEETBRO,2013-04-10 07:40:00,
2013-04-10 03:45:00,65.7,63.6,30.11,NE,53,0.0,0.0,93,0.00,,,0.00,WUHU216PEETBRO,2013-04-10 07:45:00,
2013-04-10 03:50:00,65.6,63.6,30.11,NE,53,0.0,0.0,93,0.00,,,0.00,WUHU216PEETBRO,2013-04-10 07:50:00,
2013-04-10 03:55:00,65.4,63.5,30.11,NE,53,0.0,0.0,94,0.00,,,0.00,WUHU216PEETBRO,2013-04-10 07:55:00,
2013-04-10 04:00:00,65.2,63.3,30.11,NE,53,0.0,0.0,94,0.00,,,0.00,WUHU216PEETBRO,2013-04-10 08:00:00,
2013-04-10 04:05:00,64.9,63.1,30.11,NE,53,0.0,0.0,94,0.00,,,0.00,WUHU216PEETBRO,2013-04-10 08:05:00,
2013-04-10 04:10:00,64.4,62.7,30.11,NE,53,0.0,0.0,94,0.00,,,0.00,WUHU216PEETBRO,2013-04-10 08:10:00,
2013-04-10 04:15:00,64.4,62.9,30.11,NE,53,0.0,0.0,95,0.00,,,0.00,WUHU216PEETBRO,2013-04-10 08:15:00,
2013-04-10 04:20:00,64.2,62.7,30.11,NE,53,0.0,0.0,95,0.00,,,0.00,WUHU216PEETBRO,2013-04-10 08:20:00,
2013-04-10 04:25:00,64.0,62.6,30.11,NE,53,0.0,0.0,95,0.00,,,0.00,WUHU216PEETBRO,2013-04-10 08:25:00,
2013-04-10 04:30:00,63.9,62.6,30.11,NE,53,0.0,0.0,96,0.00,,,0.00,WUHU216PEETBRO,2013-04-10 08:30:00,
2013-04-10 04:35:00,63.8,62.5,30.11,NE,53,0.0,0.0,96,0.00,,,0.00,WUHU216PEETBRO,2013-04-10 08:35:00,
2013-04-10 04:40:00,63.7,62.4,30.11,NE,53,0.0,0.0,96,0.00,,,0.00,WUHU216PEETBRO,2013-04-10 08:40:00,
2013-04-10 04:45:00,63.7,62.5,30.11,NE,53,0.0,0.0,96,0.00,,,0.00,WUHU216PEETBRO,2013-04-10 08:45:00,
2013-04-10 04:50:00,63.8,62.6,30.11,NE,53,0.0,0.0,96,0.00,,,0.00,WUHU216PEETBRO,2013-04-10 08:50:00,
2013-04-10 04:55:00,63.6,62.4,30.11,NE,53,0.0,0.0,96,0.00,,,0.00,WUHU216PEETBRO,2013-04-10 08:55:00,
2013-04-10 05:00:00,63.5,62.3,30.12,NE,53,0.0,0.0,96,0.00,,,0.00,WUHU216PEETBRO,2013-04-10 09:00:00,
2013-04-10 05:06:00,63.4,62.3,30.12,NE,53,0.0,0.0,96,0.00,,,0.00,WUHU216PEETBRO,2013-04-10 09:06:00,
2013-04-10 05:11:00,63.4,62.3,30.11,NE,53,0.0,0.0,96,0.00,,,0.00,WUHU216PEETBRO,2013-04-10 09:11:00,
2013-04-10 05:16:00,63.4,62.3,30.12,NE,53,0.0,0.0,96,0.00,,,0.00,WUHU216PEETBRO,2013-04-10 09:16:00,
2013-04-10 05:21:00,63.4,62.3,30.12,NE,53,0.0,0.0,96,0.00,,,0.00,WUHU216PEETBRO,2013-04-10 09:21:00,
2013-04-10 05:26:00,63.3,62.2,30.12,NE,53,0.0,0.0,96,0.00,,,0.00,WUHU216PEETBRO,2013-04-10 09:26:00,
2013-04-10 05:31:00,63.3,62.3,30.12,NE,53,0.0,0.0,97,0.00,,,0.00,WUHU216PEETBRO,2013-04-10 09:31:00,
2013-04-10 05:36:00,63.5,62.5,30.11,NE,53,0.0,0.0,97,0.00,,,0.00,WUHU216PEETBRO,2013-04-10 09:36:00,
2013-04-10 05:41:00,63.4,62.4,30.11,NE,53,0.0,0.0,97,0.00,,,0.00,WUHU216PEETBRO,2013-04-10 09:41:00,
2013-04-10 05:46:00,63.4,62.4,30.11,NE,53,0.0,0.0,97,0.00,,,0.00,WUHU216PEETBRO,2013-04-10 09:46:00,
2013-04-10 05:51:00,63.5,62.6,30.11,NE,53,0.0,0.0,97,0.00,,,0.00,WUHU216PEETBRO,2013-04-10 09:51:00,
2013-04-10 05:56:00,63.5,62.5,30.11,NE,53,0.0,0.0,97,0.00,,,0.00,WUHU216PEETBRO,2013-04-10 09:56:00,
2013-04-10 06:01:00,63.5,62.6,30.11,NE,53,0.0,0.0,97,0.00,,,0.00,WUHU216PEETBRO,2013-04-10 10:01:00,
2013-04-10 06:06:00,63.6,62.7,30.11,NE,53,0.0,0.0,97,0.00,,,0.00,WUHU216PEETBRO,2013-04-10 10:06:00,
2013-04-10 06:11:00,63.6,62.7,30.11,NE,53,0.0,0.0,97,0.00,,,0.00,WUHU216PEETBRO,2013-04-10 10:11:00,
2013-04-10 06:17:00,63.5,62.6,30.11,NE,53,0.0,0.0,97,0.00,,,0.00,WUHU216PEETBRO,2013-04-10 10:17:00,
2013-04-10 06:22:00,63.8,63.0,30.11,NE,53,0.0,0.0,97,0.00,,,0.00,WUHU216PEETBRO,2013-04-10 10:22:00,
2013-04-10 06:27:00,63.6,62.7,30.11,NE,53,0.0,0.0,97,0.00,,,0.00,WUHU216PEETBRO,2013-04-10 10:27:00,
2013-04-10 06:32:00,63.7,62.9,30.11,NE,53,0.0,0.0,97,0.00,,,0.00,WUHU216PEETBRO,2013-04-10 10:32:00,
2013-04-10 06:37:00,63.7,62.9,30.11,NE,53,0.0,0.0,97,0.00,,,0.00,WUHU216PEETBRO,2013-04-10 10:37:00,
2013-04-10 06:42:00,63.7,62.8,30.11,NE,53,0.0,0.0,97,0.00,,,0.00,WUHU216PEETBRO,2013-04-10 10:42:00,
2013-04-10 06:47:00,63.6,62.8,30.11,NE,53,0.0,0.0,97,0.00,,,0.00,WUHU216PEETBRO,2013-04-10 10:47:00,
2013-04-10 06:52:00,63.6,62.8,30.11,NE,53,0.0,0.0,97,0.00,,,0.00,WUHU216PEETBRO,2013-04-10 10:52:00,
2013-04-10 06:57:00,63.5,62.7,30.11,NE,53,0.0,0.0,97,0.00,,,0.00,WUHU216PEETBRO,2013-04-10 10:57:00,
2013-04-10 07:02:00,63.5,62.7,30.11,NE,53,0.0,0.0,97,0.00,,,0.00,WUHU216PEETBRO,2013-04-10 11:02:00,
2013-04-10 07:07:00,63.6,62.8,30.11,NE,53,0.0,0.0,97,0.00,,,0.00,WUHU216PEETBRO,2013-04-10 11:07:00,
2013-04-10 07:12:00,63.6,62.9,30.11,NE,53,0.0,0.0,98,0.00,,,0.00,WUHU216PEETBRO,2013-04-10 11:12:00,
2013-04-10 07:17:00,63.5,62.8,30.11,NE,53,0.0,0.0,98,0.00,,,0.00,WUHU216PEETBRO,2013-04-10 11:17:00,
2013-04-10 07:22:00,63.7,63.0,30.12,NE,53,0.0,0.0,98,0.00,,,0.00,WUHU216PEETBRO,2013-04-10 11:22:00,
2013-04-10 07:27:00,63.8,63.1,30.12,NE,53,0.0,0.0,98,0.00,,,0.00,WUHU216PEETBRO,2013-04-10 11:27:00,
2013-04-10 07:32:00,63.9,63.2,30.11,NE,53,0.0,0.0,98,0.00,,,0.00,WUHU216PEETBRO,2013-04-10 11:32:00,
2013-04-10 07:37:00,63.9,63.2,30.11,NE,53,0.0,0.0,98,0.00,,,0.00,WUHU216PEETBRO,2013-04-10 11:37:00,
2013-04-10 07:42:00,64.0,63.3,30.12,NE,53,0.0,0.0,98,0.00,,,0.00,WUHU216PEETBRO,2013-04-10 11:42:00,
2013-04-10 07:47:00,64.0,63.4,30.12,NE,53,0.0,0.0,98,0.00,,,0.00,WUHU216PEETBRO,2013-04-10 11:47:00,
2013-04-10 07:52:00,64.3,63.7,30.12,NE,53,0.0,0.0,98,0.00,,,0.00,WUHU216PEETBRO,2013-04-10 11:52:00,
2013-04-10 07:57:00,64.6,64.0,30.12,NE,53,0.0,0.0,98,0.00,,,0.00,WUHU216PEETBRO,2013-04-10 11:57:00,
2013-04-10 08:02:00,64.9,64.3,30.12,NE,53,0.0,0.0,98,0.00,,,0.00,WUHU216PEETBRO,2013-04-10 12:02:00,
2013-04-10 08:07:00,65.2,64.5,30.12,NE,53,0.0,0.0,98,0.00,,,0.00,WUHU216PEETBRO,2013-04-10 12:07:00,
2013-04-10 08:12:00,65.4,64.7,30.12,NE,53,0.0,0.0,98,0.00,,,0.00,WUHU216PEETBRO,2013-04-10 12:12:00,
2013-04-10 08:17:00,65.8,65.1,30.12,NE,53,0.0,0.0,98,0.00,,,0.00,WUHU216PEETBRO,2013-04-10 12:17:00,
2013-04-10 08:22:00,66.4,65.7,30.12,NE,53,0.0,0.0,98,0.00,,,0.00,WUHU216PEETBRO,2013-04-10 12:22:00,
2013-04-10 08:27:00,67.2,66.2,30.12,NE,53,0.0,0.0,97,0.00,,,0.00,WUHU216PEETBRO,2013-04-10 12:27:00,
2013-04-10 08:32:00,67.8,66.8,30.12,NE,53,0.0,0.0,97,0.00,,,0.00,WUHU216PEETBRO,2013-04-10 12:32:00,
2013-04-10 08:37:00,68.3,67.2,30.12,NE,53,0.0,0.0,96,0.00,,,0.00,WUHU216PEETBRO,2013-04-10 12:37:00,
2013-04-10 08:42:00,68.9,67.6,30.13,NE,53,0.0,0.0,96,0.00,,,0.00,WUHU216PEETBRO,2013-04-10 12:42:00,
2013-04-10 08:47:00,69.3,67.7,30.13,NE,53,0.0,0.0,95,0.00,,,0.00,WUHU216PEETBRO,2013-04-10 12:47:00,
2013-04-10 08:52:00,70.0,68.4,30.13,NNE,33,0.0,3.4,95,0.00,,,0.00,WUHU216PEETBRO,2013-04-10 12:52:00,
2013-04-10 08:57:00,70.5,68.7,30.13,NNE,33,0.0,3.4,94,0.00,,,0.00,WUHU216PEETBRO,2013-04-10 12:57:00,
2013-04-10 09:02:00,71.2,69.2,30.13,NNE,33,0.0,0.0,94,0.00,,,0.00,WUHU216PEETBRO,2013-04-10 13:02:00,
2013-04-10 09:07:00,71.7,69.4,30.13,SE,128,0.0,6.1,92,0.00,,,0.00,WUHU216PEETBRO,2013-04-10 13:07:00,
2013-04-10 09:12:00,72.2,69.5,30.13,ENE,67,5.0,6.6,91,0.00,,,0.00,WUHU216PEETBRO,2013-04-10 13:12:00,
2013-04-10 09:17:00,72.8,69.8,30.13,ENE,63,3.2,6.6,90,0.00,,,0.00,WUHU216PEETBRO,2013-04-10 13:17:00,
2013-04-10 09:22:00,73.3,69.8,30.13,ESE,105,0.0,7.0,89,0.00,,,0.00,WUHU216PEETBRO,2013-04-10 13:22:00,
2013-04-10 09:27:00,73.9,69.4,30.13,East,100,3.2,7.5,86,0.00,,,0.00,WUHU216PEETBRO,2013-04-10 13:27:00,
2013-04-10 09:32:00,74.2,69.2,30.13,East,90,2.9,7.5,84,0.00,,,0.00,WUHU216PEETBRO,2013-04-10 13:32:00,
2013-04-10 09:37:00,74.6,69.1,30.13,SE,127,4.4,7.2,83,0.00,,,0.00,WUHU216PEETBRO,2013-04-10 13:37:00,
2013-04-10 09:43:00,74.9,69.2,30.13,ESE,110,4.8,7.3,82,0.00,,,0.00,WUHU216PEETBRO,2013-04-10 13:43:00,
2013-04-10 09:48:00,75.0,68.0,30.14,NE,53,5.5,7.9,79,0.00,,,0.00,WUHU216PEETBRO,2013-04-10 13:48:00,
2013-04-10 09:53:00,75.1,67.5,30.14,ESE,117,5.7,8.2,77,0.00,,,0.00,WUHU216PEETBRO,2013-04-10 13:53:00,
2013-04-10 09:58:00,75.4,68.2,30.14,SSE,167,0.0,8.2,78,0.00,,,0.00,WUHU216PEETBRO,2013-04-10 13:58:00,
2013-04-10 10:03:00,75.8,67.6,30.14,SSW,207,4.5,11.2,75,0.00,,,0.00,WUHU216PEETBRO,2013-04-10 14:03:00,
2013-04-10 10:08:00,75.9,67.5,30.14,East,90,3.4,11.2,75,0.00,,,0.00,WUHU216PEETBRO,2013-04-10 14:08:00,
2013-04-10 10:13:00,75.9,66.6,30.14,SE,131,5.6,9.4,73,0.00,,,0.00,WUHU216PEETBRO,2013-04-10 14:13:00,
2013-04-10 10:18:00,76.0,66.7,30.14,ENE,62,4.8,9.4,72,0.00,,,0.00,WUHU216PEETBRO,2013-04-10 14:18:00,
2013-04-10 10:23:00,76.0,66.0,30.14,South,179,8.9,13.0,71,0.00,,,0.00,WUHU216PEETBRO,2013-04-10 14:23:00,
2013-04-10 10:28:00,76.2,66.7,30.14,SE,135,5.4,13.0,72,0.00,,,0.00,WUHU216PEETBRO,2013-04-10 14:28:00,
2013-04-10 10:33:00,76.8,66.8,30.14,NE,45,8.6,9.9,71,0.00,,,0.00,WUHU216PEETBRO,2013-04-10 14:33:00,
2013-04-10 10:38:00,77.2,66.6,30.14,NNE,21,5.9,9.0,69,0.00,,,0.00,WUHU216PEETBRO,2013-04-10 14:38:00,
2013-04-10 10:43:00,76.5,65.4,30.14,SE,143,5.9,11.2,68,0.00,,,0.00,WUHU216PEETBRO,2013-04-10 14:43:00,
2013-04-10 10:48:00,76.2,65.9,30.14,SSE,158,6.0,11.2,70,0.00,,,0.00,WUHU216PEETBRO,2013-04-10 14:48:00,
2013-04-10 10:53:00,76.7,66.1,30.14,South,177,9.4,9.4,69,0.00,,,0.00,WUHU216PEETBRO,2013-04-10 14:53:00,
2013-04-10 10:58:00,76.8,66.2,30.14,NE,55,7.0,9.4,69,0.00,,,0.00,WUHU216PEETBRO,2013-04-10 14:58:00,
2013-04-10 11:03:00,76.9,65.9,30.14,SE,135,4.7,8.9,68,0.00,,,0.00,WUHU216PEETBRO,2013-04-10 15:03:00,
2013-04-10 11:08:00,77.4,65.6,30.14,SSE,156,7.8,8.9,67,0.00,,,0.00,WUHU216PEETBRO,2013-04-10 15:08:00,
2013-04-10 11:13:00,77.3,64.9,30.14,ESE,118,7.5,9.2,65,0.00,,,0.00,WUHU216PEETBRO,2013-04-10 15:13:00,
2013-04-10 11:18:00,77.3,65.5,30.13,SSE,158,6.3,9.9,66,0.00,,,0.00,WUHU216PEETBRO,2013-04-10 15:18:00,
2013-04-10 11:23:00,77.8,66.1,30.13,NE,56,8.1,9.9,67,0.00,,,0.00,WUHU216PEETBRO,2013-04-10 15:23:00,
2013-04-10 11:28:00,78.9,65.1,30.13,SE,129,5.6,9.1,62,0.00,,,0.00,WUHU216PEETBRO,2013-04-10 15:28:00,
2013-04-10 11:33:00,79.3,62.9,30.13,ESE,112,6.8,10.7,57,0.00,,,0.00,WUHU216PEETBRO,2013-04-10 15:33:00,
2013-04-10 11:38:00,80.0,61.3,30.13,SSE,151,6.1,10.7,53,0.00,,,0.00,WUHU216PEETBRO,2013-04-10 15:38:00,
2013-04-10 11:43:00,80.4,61.5,30.13,SE,136,6.1,12.9,52,0.00,,,0.00,WUHU216PEETBRO,2013-04-10 15:43:00,
2013-04-10 11:48:00,80.5,60.3,30.13,South,190,7.8,12.9,50,0.00,,,0.00,WUHU216PEETBRO,2013-04-10 15:48:00,
2013-04-10 11:53:00,80.4,59.2,30.13,SE,143,5.5,9.6,48,0.00,,,0.00,WUHU216PEETBRO,2013-04-10 15:53:00,
2013-04-10 11:58:00,80.7,59.4,30.12,SSE,158,0.0,9.8,48,0.00,,,0.00,WUHU216PEETBRO,2013-04-10 15:58:00,
2013-04-10 12:03:00,81.4,60.2,30.12,East,100,0.0,9.8,48,0.00,,,0.00,WUHU216PEETBRO,2013-04-10 16:03:00,
2013-04-10 12:08:00,81.4,59.5,30.13,SE,132,6.2,10.7,47,0.00,,,0.00,WUHU216PEETBRO,2013-04-10 16:08:00,
2013-04-10 12:13:00,81.5,60.3,30.12,ENE,77,6.2,11.9,49,0.00,,,0.00,WUHU216PEETBRO,2013-04-10 16:13:00,
2013-04-10 12:18:00,81.4,60.3,30.12,SE,124,5.2,11.9,49,0.00,,,0.00,WUHU216PEETBRO,2013-04-10 16:18:00,
2013-04-10 12:23:00,81.0,60.4,30.12,North,9,4.6,8.7,50,0.00,,,0.00,WUHU216PEETBRO,2013-04-10 16:23:00,
2013-04-10 12:28:00,80.4,60.3,30.12,SSE,155,6.8,9.5,50,0.00,,,0.00,WUHU216PEETBRO,2013-04-10 16:28:00,
2013-04-10 12:33:00,80.7,60.6,30.12,South,190,4.3,9.5,50,0.00,,,0.00,WUHU216PEETBRO,2013-04-10 16:33:00,
2013-04-10 12:38:00,81.3,60.4,30.12,SSE,158,0.0,9.3,49,0.00,,,0.00,WUHU216PEETBRO,2013-04-10 16:38:00,
2013-04-10 12:43:00,81.4,60.3,30.11,SE,143,6.0,8.8,49,0.00,,,0.00,WUHU216PEETBRO,2013-04-10 16:43:00,
2013-04-10 12:48:00,81.4,60.5,30.11,South,169,0.0,7.5,49,0.00,,,0.00,WUHU216PEETBRO,2013-04-10 16:48:00,
2013-04-10 12:53:00,81.6,60.0,30.11,South,177,3.4,7.5,48,0.00,,,0.00,WUHU216PEETBRO,2013-04-10 16:53:00,
2013-04-10 12:58:00,82.1,60.6,30.11,SE,131,3.2,10.0,48,0.00,,,0.00,WUHU216PEETBRO,2013-04-10 16:58:00,
2013-04-10 13:03:00,82.2,60.2,30.11,SSE,152,9.0,10.0,47,0.00,,,0.00,WUHU216PEETBRO,2013-04-10 17:03:00,
2013-04-10 13:08:00,81.7,60.1,30.11,SSE,158,3.4,9.3,48,0.00,,,0.00,WUHU216PEETBRO,2013-04-10 17:08:00,
2013-04-10 13:13:00,81.6,60.1,30.10,SE,139,0.0,9.3,48,0.00,,,0.00,WUHU216PEETBRO,2013-04-10 17:13:00,
2013-04-10 13:18:00,81.3,60.1,30.10,SE,143,5.3,7.3,49,0.00,,,0.00,WUHU216PEETBRO,2013-04-10 17:18:00,
2013-04-10 13:23:00,81.3,60.1,30.10,South,182,0.0,7.3,48,0.00,,,0.00,WUHU216PEETBRO,2013-04-10 17:23:00,
2013-04-10 13:28:00,81.6,60.3,30.10,SE,128,0.0,11.8,48,0.00,,,0.00,WUHU216PEETBRO,2013-04-10 17:28:00,
2013-04-10 13:33:00,81.8,60.4,30.09,East,97,5.4,11.8,48,0.00,,,0.00,WUHU216PEETBRO,2013-04-10 17:33:00,
2013-04-10 13:38:00,81.8,60.1,30.09,SE,143,0.0,8.8,48,0.00,,,0.00,WUHU216PEETBRO,2013-04-10 17:38:00,
2013-04-10 13:43:00,81.8,62.3,30.09,South,179,3.0,6.6,51,0.00,,,0.00,WUHU216PEETBRO,2013-04-10 17:43:00,
2013-04-10 13:48:00,81.5,62.6,30.09,East,80,0.0,7.6,53,0.00,,,0.00,WUHU216PEETBRO,2013-04-10 17:48:00,
2013-04-10 13:53:00,81.6,62.6,30.09,South,176,6.4,7.6,52,0.00,,,0.00,WUHU216PEETBRO,2013-04-10 17:53:00,
2013-04-10 13:58:00,81.9,62.3,30.09,NE,35,0.0,6.6,51,0.00,,,0.00,WUHU216PEETBRO,2013-04-10 17:58:00,
2013-04-10 14:03:00,82.2,62.2,30.09,ESE,119,2.5,5.4,51,0.00,,,0.00,WUHU216PEETBRO,2013-04-10 18:03:00,
2013-04-10 14:08:00,82.6,61.0,30.09,WSW,242,5.5,5.5,48,0.00,,,0.00,WUHU216PEETBRO,2013-04-10 18:08:00,
2013-04-10 14:13:00,83.2,60.8,30.09,West,263,0.0,5.5,47,0.00,,,0.00,WUHU216PEETBRO,2013-04-10 18:13:00,
2013-04-10 14:18:00,84.4,60.5,30.09,NE,56,0.0,8.1,45,0.00,,,0.00,WUHU216PEETBRO,2013-04-10 18:18:00,
2013-04-10 14:23:00,84.5,60.4,30.09,ESE,108,4.6,8.1,44,0.00,,,0.00,WUHU216PEETBRO,2013-04-10 18:23:00,
2013-04-10 14:28:00,84.1,61.1,30.08,ESE,111,6.8,7.9,46,0.00,,,0.00,WUHU216PEETBRO,2013-04-10 18:28:00,
2013-04-10 14:33:00,83.6,61.2,30.08,NE,46,8.2,8.8,47,0.00,,,0.00,WUHU216PEETBRO,2013-04-10 18:33:00,
2013-04-10 14:38:00,83.4,62.1,30.08,WNW,299,4.1,9.3,49,0.00,,,0.00,WUHU216PEETBRO,2013-04-10 18:38:00,
2013-04-10 14:43:00,83.4,61.6,30.08,NE,36,0.0,9.3,48,0.00,,,0.00,WUHU216PEETBRO,2013-04-10 18:43:00,
2013-04-10 14:48:00,83.2,61.8,30.08,NE,39,4.6,9.1,48,0.00,,,0.00,WUHU216PEETBRO,2013-04-10 18:48:00,
2013-04-10 14:53:00,82.3,62.5,30.08,ESE,111,4.6,9.6,51,0.00,,,0.00,WUHU216PEETBRO,2013-04-10 18:53:00,
2013-04-10 14:58:00,82.1,62.9,30.08,NE,39,5.1,10.8,52,0.00,,,0.00,WUHU216PEETBRO,2013-04-10 18:58:00,
2013-04-10 15:03:00,82.5,63.6,30.08,SSE,162,7.9,10.8,53,0.00,,,0.00,WUHU216PEETBRO,2013-04-10 19:03:00,
2013-04-10 15:08:00,83.2,62.8,30.08,SE,131,4.5,10.0,50,0.00,,,0.00,WUHU216PEETBRO,2013-04-10 19:08:00,
2013-04-10 15:13:00,82.5,63.2,30.07,NE,50,0.0,10.0,52,0.00,,,0.00,WUHU216PEETBRO,2013-04-10 19:13:00,
2013-04-10 15:18:00,82.4,63.7,30.07,NNE,19,5.3,11.9,53,0.00,,,0.00,WUHU216PEETBRO,2013-04-10 19:18:00,
2013-04-10 15:23:00,82.3,63.7,30.07,ESE,115,4.5,11.9,53,0.00,,,0.00,WUHU216PEETBRO,2013-04-10 19:23:00,
2013-04-10 15:28:00,81.9,64.5,30.07,East,95,6.7,9.4,55,0.00,,,0.00,WUHU216PEETBRO,2013-04-10 19:28:00,
2013-04-10 15:33:00,81.9,63.7,30.07,ESE,115,5.0,9.4,54,0.00,,,0.00,WUHU216PEETBRO,2013-04-10 19:33:00,
2013-04-10 15:38:00,82.2,64.0,30.07,NE,55,9.1,9.1,54,0.00,,,0.00,WUHU216PEETBRO,2013-04-10 19:38:00,
2013-04-10 15:43:00,82.5,64.3,30.07,East,97,6.4,9.1,54,0.00,,,0.00,WUHU216PEETBRO,2013-04-10 19:43:00,
2013-04-10 15:48:00,82.5,63.2,30.07,NNE,14,3.1,8.7,52,0.00,,,0.00,WUHU216PEETBRO,2013-04-10 19:48:00,
2013-04-10 15:53:00,82.4,63.4,30.07,SE,141,4.3,10.9,52,0.00,,,0.00,WUHU216PEETBRO,2013-04-10 19:53:00,
2013-04-10 15:59:00,82.5,63.0,30.06,NE,56,2.7,10.9,52,0.00,,,0.00,WUHU216PEETBRO,2013-04-10 19:59:00,
2013-04-10 16:04:00,82.5,63.6,30.06,East,94,5.7,11.2,53,0.00,,,0.00,WUHU216PEETBRO,2013-04-10 20:04:00,
2013-04-10 16:09:00,83.0,63.7,30.06,ENE,57,4.3,11.2,52,0.00,,,0.00,WUHU216PEETBRO,2013-04-10 20:09:00,
2013-04-10 16:14:00,83.2,63.5,30.05,NNE,31,9.0,10.6,51,0.00,,,0.00,WUHU216PEETBRO,2013-04-10 20:14:00,
2013-04-10 16:19:00,83.7,63.1,30.05,East,86,8.1,11.4,50,0.00,,,0.00,WUHU216PEETBRO,2013-04-10 20:19:00,
2013-04-10 16:24:00,84.3,63.0,30.05,NE,35,5.0,11.4,49,0.00,,,0.00,WUHU216PEETBRO,2013-04-10 20:24:00,
2013-04-10 16:29:00,84.5,63.3,30.04,ENE,57,7.7,10.7,49,0.00,,,0.00,WUHU216PEETBRO,2013-04-10 20:29:00,
2013-04-10 16:34:00,84.1,62.8,30.04,East,81,11.2,11.2,49,0.00,,,0.00,WUHU216PEETBRO,2013-04-10 20:34:00,
2013-04-10 16:39:00,83.5,63.0,30.04,SE,124,10.3,13.2,50,0.00,,,0.00,WUHU216PEETBRO,2013-04-10 20:39:00,
2013-04-10 16:44:00,82.7,63.1,30.05,ENE,60,5.2,13.2,51,0.00,,,0.00,WUHU216PEETBRO,2013-04-10 20:44:00,
2013-04-10 16:49:00,82.6,63.2,30.04,NE,46,6.4,9.7,52,0.00,,,0.00,WUHU216PEETBRO,2013-04-10 20:49:00,
2013-04-10 16:54:00,82.5,62.3,30.04,ESE,105,3.3,11.4,50,0.00,,,0.00,WUHU216PEETBRO,2013-04-10 20:54:00,
2013-04-10 16:59:00,82.4,62.7,30.04,ESE,112,5.7,11.4,51,0.00,,,0.00,WUHU216PEETBRO,2013-04-10 20:59:00,
2013-04-10 17:04:00,82.3,63.5,30.04,NE,49,4.3,11.3,53,0.00,,,0.00,WUHU216PEETBRO,2013-04-10 21:04:00,
2013-04-10 17:09:00,82.0,63.3,30.04,NNE,21,5.8,11.8,53,0.00,,,0.00,WUHU216PEETBRO,2013-04-10 21:09:00,
2013-04-10 17:14:00,81.8,63.8,30.04,NE,53,7.3,12.4,54,0.00,,,0.00,WUHU216PEETBRO,2013-04-10 21:14:00,
2013-04-10 17:19:00,82.3,64.2,30.04,ENE,59,10.2,12.4,54,0.00,,,0.00,WUHU216PEETBRO,2013-04-10 21:19:00,
2013-04-10 17:24:00,82.5,63.3,30.04,ENE,64,9.7,13.4,52,0.00,,,0.00,WUHU216PEETBRO,2013-04-10 21:24:00,
2013-04-10 17:29:00,82.0,63.7,30.04,NE,47,8.6,13.4,54,0.00,,,0.00,WUHU216PEETBRO,2013-04-10 21:29:00,
2013-04-10 17:34:00,82.0,64.1,30.04,NE,52,13.5,14.8,54,0.00,,,0.00,WUHU216PEETBRO,2013-04-10 21:34:00,
2013-04-10 17:39:00,82.0,64.5,30.04,NE,38,6.9,14.8,55,0.00,,,0.00,WUHU216PEETBRO,2013-04-10 21:39:00,
2013-04-10 17:44:00,81.6,64.5,30.04,NE,46,7.6,13.7,56,0.00,,,0.00,WUHU216PEETBRO,2013-04-10 21:44:00,
2013-04-10 17:49:00,81.1,65.2,30.04,ESE,108,6.1,13.6,58,0.00,,,0.00,WUHU216PEETBRO,2013-04-10 21:49:00,
2013-04-10 17:54:00,80.8,65.5,30.04,ENE,67,7.0,12.4,59,0.00,,,0.00,WUHU216PEETBRO,2013-04-10 21:54:00,
2013-04-10 17:59:00,80.7,65.7,30.04,East,81,0.0,11.1,60,0.00,,,0.00,WUHU216PEETBRO,2013-04-10 21:59:00,
2013-04-10 18:04:00,80.7,65.7,30.04,ESE,121,2.9,14.0,60,0.00,,,0.00,WUHU216PEETBRO,2013-04-10 22:04:00,
2013-04-10 18:09:00,80.4,66.0,30.04,ENE,71,6.2,14.0,61,0.00,,,0.00,WUHU216PEETBRO,2013-04-10 22:09:00,
2013-04-10 18:14:00,80.1,66.1,30.04,SE,142,6.3,10.9,62,0.00,,,0.00,WUHU216PEETBRO,2013-04-10 22:14:00,
2013-04-10 18:19:00,80.2,66.4,30.04,ESE,110,2.9,10.9,62,0.00,,,0.00,WUHU216PEETBRO,2013-04-10 22:19:00,
2013-04-10 18:24:00,80.3,66.3,30.04,NNE,22,10.0,11.3,62,0.00,,,0.00,WUHU216PEETBRO,2013-04-10 22:24:00,
2013-04-10 18:29:00,80.3,66.5,30.04,East,87,3.5,11.3,62,0.00,,,0.00,WUHU216PEETBRO,2013-04-10 22:29:00,
2013-04-10 18:34:00,80.3,66.6,30.05,NE,56,8.3,11.1,63,0.00,,,0.00,WUHU216PEETBRO,2013-04-10 22:34:00,
2013-04-10 18:39:00,80.0,66.6,30.05,SSE,160,4.5,12.8,63,0.00,,,0.00,WUHU216PEETBRO,2013-04-10 22:39:00,
2013-04-10 18:44:00,79.8,67.0,30.05,NE,53,2.9,13.1,64,0.00,,,0.00,WUHU216PEETBRO,2013-04-10 22:44:00,
2013-04-10 18:49:00,79.4,67.0,30.05,East,80,5.8,13.1,65,0.00,,,0.00,WUHU216PEETBRO,2013-04-10 22:49:00,
2013-04-10 18:54:00,79.1,67.3,30.04,ESE,115,6.2,12.4,67,0.00,,,0.00,WUHU216PEETBRO,2013-04-10 22:54:00,
2013-04-10 18:59:00,79.1,67.8,30.04,NNE,22,8.9,12.4,68,0.00,,,0.00,WUHU216PEETBRO,2013-04-10 22:59:00,
2013-04-10 19:04:00,79.0,68.1,30.04,ENE,67,4.2,14.2,69,0.00,,,0.00,WUHU216PEETBRO,2013-04-10 23:04:00,
2013-04-10 19:09:00,78.7,68.4,30.04,NE,38,6.1,14.2,70,0.00,,,0.00,WUHU216PEETBRO,2013-04-10 23:09:00,
2013-04-10 19:14:00,78.5,68.6,30.04,ESE,107,7.0,13.1,71,0.00,,,0.00,WUHU216PEETBRO,2013-04-10 23:14:00,
2013-04-10 19:19:00,78.3,68.6,30.04,NE,40,8.3,14.3,72,0.00,,,0.00,WUHU216PEETBRO,2013-04-10 23:19:00,
2013-04-10 19:24:00,77.9,68.6,30.04,NE,56,7.0,14.3,73,0.00,,,0.00,WUHU216PEETBRO,2013-04-10 23:24:00,
2013-04-10 19:29:00,77.8,68.8,30.04,East,84,9.6,11.2,73,0.00,,,0.00,WUHU216PEETBRO,2013-04-10 23:29:00,
2013-04-10 19:34:00,77.7,68.9,30.04,ENE,74,8.1,11.2,74,0.00,,,0.00,WUHU216PEETBRO,2013-04-10 23:34:00,
2013-04-10 19:39:00,77.4,68.9,30.04,NE,56,6.5,8.3,75,0.00,,,0.00,WUHU216PEETBRO,2013-04-10 23:39:00,
2013-04-10 19:44:00,77.3,69.2,30.04,East,100,6.4,10.4,76,0.00,,,0.00,WUHU216PEETBRO,2013-04-10 23:44:00,
2013-04-10 19:49:00,77.1,69.4,30.04,ENE,57,3.3,10.4,77,0.00,,,0.00,WUHU216PEETBRO,2013-04-10 23:49:00,
2013-04-10 19:54:00,77.0,69.6,30.04,ENE,74,0.0,8.3,78,0.00,,,0.00,WUHU216PEETBRO,2013-04-10 23:54:00,
2013-04-10 19:59:00,76.8,69.8,30.04,East,100,12.1,12.1,79,0.00,,,0.00,WUHU216PEETBRO,2013-04-10 23:59:00,
2013-04-10 20:04:00,76.4,69.7,30.04,SE,127,8.5,12.1,79,0.00,,,0.00,WUHU216PEETBRO,2013-04-11 00:04:00,
2013-04-10 20:09:00,76.2,69.9,30.04,NE,45,7.5,10.2,81,0.00,,,0.00,WUHU216PEETBRO,2013-04-11 00:09:00,
2013-04-10 20:14:00,76.2,70.1,30.04,ESE,112,5.9,10.2,81,0.00,,,0.00,WUHU216PEETBRO,2013-04-11 00:14:00,
2013-04-10 20:19:00,76.0,70.1,30.05,SE,136,7.5,10.9,82,0.00,,,0.00,WUHU216PEETBRO,2013-04-11 00:19:00,
2013-04-10 20:24:00,75.9,70.2,30.05,SSE,159,6.3,10.9,82,0.00,,,0.00,WUHU216PEETBRO,2013-04-11 00:24:00,
2013-04-10 20:29:00,75.8,70.1,30.05,ENE,70,2.9,9.6,82,0.00,,,0.00,WUHU216PEETBRO,2013-04-11 00:29:00,
2013-04-10 20:34:00,75.7,70.3,30.05,ENE,63,10.1,10.1,83,0.00,,,0.00,WUHU216PEETBRO,2013-04-11 00:34:00,
2013-04-10 20:39:00,75.5,70.2,30.05,NE,56,3.0,10.1,83,0.00,,,0.00,WUHU216PEETBRO,2013-04-11 00:39:00,
2013-04-10 20:44:00,75.4,70.3,30.05,ESE,111,7.8,8.4,84,0.00,,,0.00,WUHU216PEETBRO,2013-04-11 00:44:00,
2013-04-10 20:49:00,75.3,70.3,30.05,South,170,3.4,8.4,85,0.00,,,0.00,WUHU216PEETBRO,2013-04-11 00:49:00,
2013-04-10 20:54:00,75.2,70.4,30.05,SE,146,6.2,8.6,85,0.00,,,0.00,WUHU216PEETBRO,2013-04-11 00:54:00,
2013-04-10 20:59:00,75.0,70.4,30.05,South,173,0.0,9.4,86,0.00,,,0.00,WUHU216PEETBRO,2013-04-11 00:59:00,
2013-04-10 21:04:00,74.9,70.4,30.06,ESE,104,0.0,9.4,86,0.00,,,0.00,WUHU216PEETBRO,2013-04-11 01:04:00,
2013-04-10 21:09:00,74.8,70.5,30.06,East,84,0.0,10.5,86,0.00,,,0.00,WUHU216PEETBRO,2013-04-11 01:09:00,
2013-04-10 21:14:00,74.8,70.7,30.06,ESE,107,3.5,10.5,87,0.00,,,0.00,WUHU216PEETBRO,2013-04-11 01:14:00,
2013-04-10 21:19:00,74.7,70.7,30.06,NE,45,3.3,10.6,87,0.00,,,0.00,WUHU216PEETBRO,2013-04-11 01:19:00,
2013-04-10 21:24:00,74.7,70.8,30.06,ESE,108,4.8,10.6,88,0.00,,,0.00,WUHU216PEETBRO,2013-04-11 01:24:00,
2013-04-10 21:29:00,74.6,70.8,30.06,South,173,0.0,9.4,88,0.00,,,0.00,WUHU216PEETBRO,2013-04-11 01:29:00,
2013-04-10 21:34:00,74.4,70.7,30.06,SE,142,0.0,9.1,88,0.00,,,0.00,WUHU216PEETBRO,2013-04-11 01:34:00,
2013-04-10 21:39:00,74.4,70.9,30.06,ESE,119,6.7,7.6,89,0.00,,,0.00,WUHU216PEETBRO,2013-04-11 01:39:00,
2013-04-10 21:44:00,74.3,70.9,30.06,ESE,103,0.0,8.5,89,0.00,,,0.00,WUHU216PEETBRO,2013-04-11 01:44:00,
2013-04-10 21:49:00,74.2,71.0,30.06,ENE,63,0.0,8.5,90,0.00,,,0.00,WUHU216PEETBRO,2013-04-11 01:49:00,
2013-04-10 21:54:00,74.2,71.1,30.06,SE,128,0.0,7.4,90,0.00,,,0.00,WUHU216PEETBRO,2013-04-11 01:54:00,
2013-04-10 21:59:00,74.2,71.2,30.06,SE,125,0.0,5.4,90,0.00,,,0.00,WUHU216PEETBRO,2013-04-11 01:59:00,
2013-04-10 22:04:00,74.0,71.0,30.06,ESE,105,0.0,6.6,91,0.00,,,0.00,WUHU216PEETBRO,2013-04-11 02:04:00,
2013-04-10 22:09:00,74.0,71.1,30.06,ESE,110,0.0,6.6,91,0.00,,,0.00,WUHU216PEETBRO,2013-04-11 02:09:00,
2013-04-10 22:14:00,73.8,70.9,30.06,SE,134,0.0,5.1,91,0.00,,,0.00,WUHU216PEETBRO,2013-04-11 02:14:00,
2013-04-10 22:19:00,73.9,71.1,30.06,SE,134,3.3,5.2,91,0.00,,,0.00,WUHU216PEETBRO,2013-04-11 02:19:00,
2013-04-10 22:24:00,73.9,71.2,30.06,East,87,0.0,5.2,91,0.00,,,0.00,WUHU216PEETBRO,2013-04-11 02:24:00,
2013-04-10 22:29:00,73.7,71.0,30.06,East,87,0.0,4.5,91,0.00,,,0.00,WUHU216PEETBRO,2013-04-11 02:29:00,
2013-04-10 22:34:00,73.7,71.1,30.07,ENE,57,3.1,8.3,92,0.00,,,0.00,WUHU216PEETBRO,2013-04-11 02:34:00,
2013-04-10 22:39:00,73.7,71.1,30.06,ESE,114,0.0,8.3,92,0.00,,,0.00,WUHU216PEETBRO,2013-04-11 02:39:00,
2013-04-10 22:44:00,73.7,71.1,30.06,SSE,149,7.3,7.3,92,0.00,,,0.00,WUHU216PEETBRO,2013-04-11 02:44:00,
2013-04-10 22:49:00,73.6,71.1,30.06,SE,134,0.0,7.3,92,0.00,,,0.00,WUHU216PEETBRO,2013-04-11 02:49:00,
2013-04-10 22:54:00,73.7,71.1,30.05,East,86,0.0,7.3,92,0.00,,,0.00,WUHU216PEETBRO,2013-04-11 02:54:00,
2013-04-10 22:59:00,73.6,71.1,30.04,SE,135,0.0,7.2,92,0.00,,,0.00,WUHU216PEETBRO,2013-04-11 02:59:00,
2013-04-10 23:04:00,73.5,71.0,30.04,SSE,153,3.0,4.9,92,0.00,,,0.00,WUHU216PEETBRO,2013-04-11 03:04:00,
2013-04-10 23:09:00,73.3,71.0,30.04,SE,142,0.0,5.9,93,0.00,,,0.00,WUHU216PEETBRO,2013-04-11 03:09:00,
2013-04-10 23:14:00,73.3,71.1,30.04,East,94,0.0,5.9,93,0.00,,,0.00,WUHU216PEETBRO,2013-04-11 03:14:00,
2013-04-10 23:19:00,73.2,71.0,30.03,SE,125,3.5,7.3,93,0.00,,,0.00,WUHU216PEETBRO,2013-04-11 03:19:00,
2013-04-10 23:24:00,73.2,71.0,30.03,NE,36,0.0,7.3,93,0.00,,,0.00,WUHU216PEETBRO,2013-04-11 03:24:00,
2013-04-10 23:29:00,73.2,71.2,30.03,ENE,60,0.0,8.8,93,0.00,,,0.00,WUHU216PEETBRO,2013-04-11 03:29:00,
2013-04-10 23:34:00,73.2,71.2,30.02,SE,146,0.0,8.8,93,0.00,,,0.00,WUHU216PEETBRO,2013-04-11 03:34:00,
2013-04-10 23:39:00,73.3,71.3,30.02,ENE,73,0.0,8.2,94,0.00,,,0.00,WUHU216PEETBRO,2013-04-11 03:39:00,
2013-04-10 23:44:00,73.3,71.3,30.02,ESE,112,0.0,8.6,94,0.00,,,0.00,WUHU216PEETBRO,2013-04-11 03:44:00,
2013-04-10 23:49:00,73.3,71.3,30.02,East,81,0.0,9.2,94,0.00,,,0.00,WUHU216PEETBRO,2013-04-11 03:49:00,
2013-04-10 23:54:00,73.3,71.4,30.02,South,172,0.0,9.2,94,0.00,,,0.00,WUHU216PEETBRO,2013-04-11 03:54:00,
2013-04-10 23:59:00,73.0,71.2,30.02,SE,131,4.2,7.0,94,0.00,,,0.00,WUHU216PEETBRO,2013-04-11 03:59:00,